STARLINK-35373, 65792

Orbit data source: Space-Track

STARLINK-35373, 65792 is a payload satellite owned by SpaceX/Seattle (US) in SSO that was launched on Fri, 26 Sep 2025 UTC via an FALCON 9 launch vehicle from the Air Force Western Test Range (AFWTR). Payload-class satellites include a variety of spacecraft equipped with specific instruments for various scientific and technological missions. These include communications satellites like Starlink; space stations such as the ISS; scientific satellites like the Hubble; Earth observation satellites from companies like Planet Labs, Umbra, and HawkEye 360; GPS; miniature CubeSats for education and research; and military/defense satellites.

Loading next visibility...
Identifier
65792, 2025-218B
Orbit
SSO
Country
Flag of USUS
Related business
Manufacturer
SpaceX/Seattle
Mission
Operational Commercial Communications
Bus & Motor
STARLINK V2MO, Unknown motor
Mass
575 kg wet, ~530 kg dry
Launch date (UTC)
2025-09-26 (5 months ago)
Launch vehicle
FALCON 9
Launch site
Air Force Western Test Range (AFWTR)
Object type
Payload
Rocket body
Debris
Shape & HBR
Box + 2 Pan, 17.7 m
Radar Cross Section
36.964 m²

Expand to show TLE details & history
Last TLE update: 16 hours ago

TLE from 16 hours ago
0 STARLINK-35373
1 65792U 25218B   26062.19831831  .00011273  00000-0  78391-3 0  9992
2 65792  97.6017 286.5661 0001605  61.5781 298.5607 15.05665240 23999
Epoch: 2026-03-03T04:45Z
TLE epoch observation values (Epoch: 2026-03-03T04:45:34.701Z)
Latitude
-0.0001°
Longitude
54.19071°
Altitude
551.998 km
Speed
7.586 km/s
True Right ascension
19h 06m 15s
True Declination
0° 00' 00"
Sunlit
Object was in daylight at epoch
Visualization orbit readout
Latitude
Unknown
Longitude
Unknown
Altitude
Unknown
Speed
Unknown
Apparent Right ascension
Unknown
Apparent Declination
Unknown
Sunlit
N/A
Visualization observer readout
Local Sidereal Time
00:33:57
Azimuth
Unknown
Elevation
Unknown
Doppler factor
Unknown
Orbital elements
Apogee altitude
547.569 km
Perigee altitude
545.346 km
Semi-major axis
6,924.595 km
Eccentricity
0.00016
Inclination
97.6017°
RAAN
286.5661°
Arg. of periapsis
61.5781°
True anomaly
298.54454°
Mean anomaly
298.5607°
Eccentric anomaly
298.55262°
Mean motion
3.76662 °/min
Orbital period
95.58 mins
BSTAR
0.00078391
Loading maneuver chart data...
Computing Atmospheric mass density...
Loading historical data...
Loading historical data...
Loading historical data...
Loading historical data...
Loading historical data...
Loading historical data...
Loading historical data...

Documentation

Showing up to 5 results
|